Location: Buckhorn Peak
(37.6641°N, 120.1241°W)
Time: 22:55:30
(UTC+00:00)

Altair - Pass Details

Date: 10 November 2024
Orbit: 1501 x 1683 km, 47.2° (Epoch: 03 December)

Event Time Altitude Azimuth Distance (km) Brightness Sun altitude
Rises 02:34:35 0° 299° (WNW) 4,652 10.9 -20.2°
Reaches altitude 10° 02:37:44 10° 294° (WNW) 3,681 10.3 -20.8°
Maximum altitude 02:46:20 44° 226° (SW) 2,025 8.4 -22.5°
Drops below altitude 10° 02:55:13 10° 157° (SSE) 3,788 9.4 -24.3°
Sets 02:58:32 0° 151° (SSE) 4,797 9.9 -24.9°
